Retour au catalogue

STARLINK-37857

ActifCommunicationsSSO
NORAD 69429·PAYLOAD·🇺🇸 United States

Lancé Jun 7, 2026 depuis Vandenberg Space Force Base

Loading…

Prochains Passages (prochaines 24 heures)

TLE

FraisSource: CelesTrak SupGP

Époque: Sep 14, 2026, 21:31 UTC

1 69429C 26126K   26257.89701389  .00029910  00000+0  92889-3 0  2570
2 69429  97.2846 119.2291 0002300  96.5714  21.5714 15.33408713    16

Suivez STARLINK-37857 en temps réel avec AllMySat

Download on the App Store